TIANTONG-1 1

Last updated on Wed Sep 17 2025 00:02:49 GMT+0000 (Coordinated Universal Time)

1 41725U 16048A 25259.38968450 -.00000334 00000+0 00000+0 0 9993 2 41725 3.3389 40.1830 0001553 188.6027 8.4476 1.00268222 33524
UTC large
Height (km)
Speed (km/s)
/
Latitude / Longitude
Inclination (degrees)
Orbital Period (minutes)
Azimuth
Elevation
Range (km)
Doppler Factor

Next 0 passes for location: London (51.5072 / 0.1276)

Sorry there are no passes over London.